Location: Vlissingen
(51.4500°N, 3.5830°E)
Time: 10:47:22
(UTC+02:00)

Envisat - Pass Details

Date: 24 May 2024
Orbit: 762 x 764 km, 98.3° (Epoch: 13 June)

Event Time Altitude Azimuth Distance (km) Brightness Sun altitude
Rises 04:32:44 0° 20° (NNE) 3,241 7.8 -8.7°
Reaches altitude 10° 04:35:12 10° 28° (NNE) 2,309 7.0 -8.4°
Maximum altitude 04:39:57 38° 97° (E) 1,150 4.3 -7.9°
Drops below altitude 10° 04:44:39 10° 165° (SSE) 2,293 5.2 -7.5°
Sets 04:47:05 0° 173° (S) 3,214 5.8 -7.2°
